カタログに戻る

STARLINK-4079

運用中通信VLEO
NORAD 52666·PAYLOAD·🇺🇸 United States

打ち上げ May 18, 2022 から Cape Canaveral Space Force Station

Loading…

次のパス (今後24時間)

TLE

最新Source: CelesTrak SupGP

元期: Sep 15, 2026, 02:27 UTC

1 52666C 22053L   26258.10256944  .00000576  00000+0  36135-4 0  2588
2 52666  53.1599  22.7970 0001137  88.1993  40.5256 15.08827284    14

AllMySatでSTARLINK-4079をリアルタイム追跡

Download on the App Store